Regional Weather Roundup
Issued by NWS

Home | Current Version | Previous Version | Text Only | Print | Product List | Glossary Off
Versions: 1 2 3 4 5 6 7 8 9 10 11 12 13 14 15 16 17 18 19 20 21 22 23 24 25 26 27 28 29 30 31 32 33 34 35 36 37 38 39 40 41 42 43 44 45 46 47 48 49 50

000
ASUS43 KBIS 240910
RWRND

NORTH DAKOTA REGIONAL WEATHER ROUNDUP
NATIONAL WEATHER SERVICE BISMARCK ND
300 AM CST FRI NOV 24 2017

NOTE: "FAIR" INDICATES FEW OR NO CLOUDS BELOW 12,000 FEET WITH NO
SIGNIFICANT WEATHER AND/OR OBSTRUCTIONS TO VISIBILITY.


NDZ001>003-009>011-017-241000-
NORTHWEST NORTH DAKOTA

CITY           SKY/WX    TMP DP  RH WIND       PRES   REMARKS
WILLISTON      CLOUDY    44  39  82 CALM      29.39R
MINOT          CLOUDY    45  37  73 W14       29.30F
MINOT AFB      MOCLDY    41  37  85 NW13      29.30S
$$

NDZ018>021-031>035-040>046-241000-
SOUTHWEST NORTH DAKOTA

CITY           SKY/WX    TMP DP  RH WIND       PRES   REMARKS
BISMARCK       PTCLDY    51  36  56 W10       29.38S
DICKINSON      CLOUDY    49  34  56 W10       29.41R
GARRISON         N/A     49  37  63 W9        29.33F
HETTINGER ARPT CLEAR     49  32  52 W9        29.45F
$$

NDZ004>008-012>016-024-026-027-054-241000-
NORTHEAST NORTH DAKOTA

CITY           SKY/WX    TMP DP  RH WIND       PRES   REMARKS
GRAND FORKS    PTCLDY    42  36  79 CALM      29.25R
GRND FRKS AFB  PTCLDY    44  35  71 W12       29.24R
DEVILS LAKE    CLOUDY    42  35  76 W14       29.28R
$$

NDZ022-023-025-028>030-036>039-047>053-241000-
SOUTHEAST NORTH DAKOTA

CITY           SKY/WX    TMP DP  RH WIND       PRES   REMARKS
FARGO          CLOUDY    45  37  73 SW9       29.30F
JAMESTOWN      CLOUDY    49  36  61 W9        29.32S
$$





USA.gov is the U.S. government's official web portal to all federal, state and local government web resources and services.